Location: *
(55.6049°S, 142.1985°W)
Time: 16:10:05
(UTC+00:00)

Cosmos 44 - Pass Details

Date: 12 May 2021
Orbit: 571 x 791 km, 65.1° (Epoch: 17 June)

Event Time Altitude Azimuth Distance (km) Brightness Sun altitude
Exits shadow 14:50:53 26° 203° (SSW) 1,172 4.2 -19.8°
Maximum altitude 14:51:15 27° 195° (SSW) 1,162 4.3 -19.8°
Drops below altitude 10° 14:54:55 10° 136° (SE) 1,917 6.1 -19.2°
Sets 14:57:27 0° 123° (ESE) 2,823 7.3 -18.9°
